Weather History for KBLH - May, 2009

Change the Weather History Date:

Sunday, May 10, 2009

  Actual Average (KNYL) Record (KNYL)
Temperature  
Mean Temperature 86 °F 80 °F  
Max Temperature 102 °F 94 °F 111 °F (1934)
Min Temperature 71 °F 66 °F 45 °F (1922)
Degree Days  
Heating Degree Days 0 0  
Month to date heating degree days 0  
Since 1 July heating degree days 686  
Cooling Degree Days 22 15  
Month to date cooling degree days 136  
Year to date cooling degree days 542  
Growing Degree Days 36 (Base 50)    
Moisture  
Dew Point 39 °F    
Average Humidity 19    
Maximum Humidity 34    
Minimum Humidity 8    
Precipitation  
Precipitation 0.00 in 0.01 in 0.05 in (1958)
Month to date precipitation 0.03  
Year to date precipitation 1.27  
Sea Level Pressure  
Sea Level Pressure 29.71 in    
Wind  
Wind Speed 8 mph (South)    
Max Wind Speed 16 mph    
Max Gust Speed -    
Visibility 10 miles    
Events      
T = Trace of Precipitation, MM = Missing Value Source: NWS Daily Summary

Daily Weather History Graph

Daily Weather History Graph

Search for Another Location

Airport or City:

Trip Planner

Search our weather history database for the weather conditions in past years. The results will help you decide how hot, cold, wet, or windy it might be!

Date:

Astronomy

May. 10, 2009 Rise Set
Actual Time 5:41 AM PDT 7:29 PM PDT
Civil Twilight 5:14 AM PDT 7:56 PM PDT
Nautical Twilight 4:41 AM PDT 8:29 PM PDT
Astronomical Twilight 4:07 AM PDT 9:04 PM PDT
Moon 9:26 PM PDT (5/10) 6:23 AM PDT (5/10)
Length of Visible Light 14h 41m
Length of Day
13h 47m
Full, 97% of the Moon is Illuminated
May 10
Full
May 17
Last Quarter
May 24
New
May 30
First Quarter
Jun 7
Full

Hourly Weather History & Observations

Time (PDT) Temp. Dew Point Humidity Pressure Visibility Wind Dir Wind Speed Gust Speed Precip Events Conditions
12:52 AM 82.9 °F 36.0 °F 19% 29.70 in 10.0 mi SSW 10.4 mph - N/A   Clear
1:52 AM 80.1 °F 39.0 °F 23% 29.69 in 10.0 mi SSW 4.6 mph - N/A   Clear
2:52 AM 79.0 °F 39.0 °F 24% 29.69 in 10.0 mi South 10.4 mph - N/A   Clear
3:52 AM 78.1 °F 39.0 °F 25% 29.70 in 10.0 mi South 12.7 mph - N/A   Clear
4:52 AM 75.9 °F 39.9 °F 27% 29.70 in 10.0 mi SSW 6.9 mph - N/A   Clear
5:52 AM 71.1 °F 41.0 °F 34% 29.73 in 10.0 mi NNE 3.5 mph - N/A   Clear
6:52 AM 73.9 °F 37.0 °F 26% 29.74 in 10.0 mi Calm Calm - N/A   Clear
7:52 AM 79.0 °F 39.9 °F 25% 29.77 in 10.0 mi NW 3.5 mph - N/A   Clear
8:52 AM 82.9 °F 41.0 °F 23% 29.78 in 10.0 mi Calm Calm - N/A   Clear
9:52 AM 87.1 °F 42.1 °F 21% 29.78 in 10.0 mi Calm Calm - N/A   Clear
10:52 AM 91.0 °F 42.1 °F 18% 29.78 in 10.0 mi SSE 5.8 mph - N/A   Clear
11:52 AM 95.0 °F 42.1 °F 16% 29.77 in 10.0 mi Variable 4.6 mph - N/A   Clear
12:52 PM 96.1 °F 42.1 °F 15% 29.75 in 10.0 mi Variable 3.5 mph - N/A   Clear
1:52 PM 98.1 °F 41.0 °F 14% 29.72 in 10.0 mi South 8.1 mph - N/A   Clear
2:52 PM 100.9 °F 37.9 °F 11% 29.70 in 10.0 mi SSE 10.4 mph - N/A   Clear
3:52 PM 100.0 °F 36.0 °F 11% 29.67 in 10.0 mi SE 5.8 mph - N/A   Clear
4:52 PM 102.9 °F 32.0 °F 8% 29.65 in 10.0 mi South 16.1 mph - N/A   Clear
5:52 PM 100.9 °F 33.1 °F 9% 29.64 in 10.0 mi South 16.1 mph - N/A   Clear
6:52 PM 98.1 °F 37.9 °F 12% 29.64 in 10.0 mi SSE 11.5 mph - N/A   Clear
7:52 PM 96.1 °F 35.1 °F 12% 29.65 in 10.0 mi SW 9.2 mph - N/A   Clear
8:52 PM 93.9 °F 37.9 °F 14% 29.67 in 10.0 mi SSW 10.4 mph - N/A   Clear
9:52 PM 91.0 °F 37.0 °F 15% 29.69 in 10.0 mi South 9.2 mph - N/A   Clear
10:52 PM 84.9 °F 41.0 °F 21% 29.70 in 10.0 mi South 12.7 mph - N/A   Clear
11:52 PM 84.9 °F 42.1 °F 22% 29.71 in 10.0 mi South 12.7 mph - N/A   Clear